{"data":{"norad_id":56067,"epoch":"2026-05-25T00:21:55.631808Z","epoch_age_seconds":63836,"freshness":"FRESH","line1":"1 56067U 23043X   26145.01522722 -.00000036  00000+0 -11800-3 0  9998","line2":"2 56067  87.9257 248.5822 0002223 106.7203 253.4175 13.21824926155177","mean_motion":13.21824926,"eccentricity":0.0002223,"inclination_deg":87.9257,"raan_deg":248.5822,"arg_perigee_deg":106.7203,"mean_anomaly_deg":253.4175,"bstar":-0.000118,"rev_number":15517,"period_min":108.94029698453,"perigee_km":1176.0777858683,"apogee_km":1179.4371365457,"semimajor_km":7555.894461207,"source":"CELESTRAK","updated_at":"2026-05-25T13:38:22.704330Z"}}